sat.trackr.live / text

‹ back to catalog

ONEWEB-0538

NORAD 56047 · 2023-043B

PAYLOAD ACTIVE UNKNOWN

§ Identity

Operator
Country
UK
Launch date
2023-03-26
Launch site
SRILR
Launch vehicle
Mass (kg)
RCS (m²)

Purposes: comms

External: N2YO · Heavens-Above · Gunter

§ Orbital elements

Epoch: 2026-09-20T04:25:37.744032Z

Period
109.37 min
Inclination
87.9151°
Eccentricity
0.0001732
Mean motion
13.16594253 rev/d
Perigee alt
1,196.4 km
Apogee alt
1,199.1 km
Semi-major
7,575.9 km
B*
-1.7718e-4
RAAN
209.9144°
Arg perigee
73.2979°
Mean anomaly
286.8342°
Rev number
17,147

§ Raw data

ONEWEB-05381 56047U 23043B   26263.18446463 -.00000055  00000+0 -17718-3 0  99972 56047  87.9151 209.9144 0001732  73.2979 286.8342 13.16594253171476

JSON: /api/v1/satellites/56047 · /tle

For live sub-satellite position, see the globe view (requires WebGL).

§ Visibility from observer

Set your observer location to see the next 7 days of passes ≥ 10°. The values pass through the URL so the page stays shareable.

No JS? Fill the form by hand. The geolocation button needs JavaScript.